Temperature
7 5 5 6 6 7 7 6 6 7 7 6 6 6 6 6 5 5 5 6 6 7 8 8 8 8 7 7 7 7 7 6 6 6 6 6 6 6 6 6 6 5 5 5
5 5 6 6 6 6 6 6 6 6 6 6 5 5 5 5 5 5 5 5 6 6 7 7 7 7 7 7 6 6 6 6 6 6 6 6 6 5 5 5 5 5 5 5
5 6 6 6 6 6 6 6 6 6 5 5 5 5 5 5 5 5 5 5 6 6 6 6 6 6 6 6 6 6 6 6 6 5 5 5 5 5 5 5 5 4 4 4
5 5 5 6 5 5 5 6 6 5 5 4 5 5 5 4 4 4 4 5 5 5 5 6 6 6 6 6 6 5 5 5 5 5 5 5 5 5 4 4 4 4 4 4
4 5 5 5 5 5 5 5 5 5 5 4 4 4 4 4 4 4 4 4 4 5 5 5 5 5 6 5 5 5 5 4 4 4 4 4 4 4 4 4 4 4 4 3
4 4 5 5 5 5 4 4 4 3 3 4 4 4 4 3 4 4 3 3 4 4 4 4 5 5 5 5 4 4 4 4 4 4 4 4 4 4 4 3 3 3 3 3
4 4 4 4 4 4 4 4 4 4 4 4 4 4 4 3 3 3 2 2 2 3 3 3 4 4 4 4 4 3 3 3 3 3 3 3 3 3 3 3 3 3 3 3
3 4 4 4 4 4 4 4 4 4 4 4 3 3 3 2 2 2 2 2 2 2 2 3 3 3 3 3 3 3 3 2 2 2 2 2 2 2 2 3 2 2 3 2
2 3 3 3 3 4 3 3 4 3 3 3 3 2 2 1 1 0 0 0 0 1 1 2 2 2 2 3 2 2 2 2 2 2 2 2 2 2 2 2 2 2 2 2
2 2 2 2 3 3 3 3 2 3 3 3 3 2 2 2 1 -0 -1 -1 -1 0 1 1 1 2 2 2 2 2 2 2 2 1 1 1 1 1 1 1 1 1 1 1
2 2 1 2 2 2 2 2 2 2 2 3 3 3 2 1 0 -1 -1 -1 -1 -0 -0 0 1 1 1 1 1 1 1 1 1 1 1 1 1 1 1 1 1 1 1 1
1 0 0 1 1 2 2 1 1 2 1 1 2 2 0 -1 -1 -1 -2 -2 -1 -1 -0 -0 -0 0 0 0 1 1 1 1 1 0 0 0 0 0 0 0 0 0 0 0
1 0 1 2 1 1 0 0 0 1 0 0 1 2 -1 -2 -2 -2 -2 -2 -2 -1 -1 -1 -1 -1 -1 -0 -0 0 0 0 0 -0 -0 -0 -0 -0 -0 -0 -0 -0 -0 -0
1 -0 0 1 1 0 -1 -0 -0 -0 -0 -0 0 1 -1 -1 -2 -3 -3 -3 -3 -2 -2 -2 -2 -1 -1 -1 -1 -1 -0 -0 -0 -1 -1 -1 -1 -1 -1 -1 -1 -1 -1 -1
-0 -1 -1 -1 -0 -1 -1 -1 -1 -1 -1 -1 -0 -0 -1 -2 -3 -3 -3 -3 -3 -3 -3 -3 -2 -2 -2 -2 -2 -1 -1 -1 -1 -1 -1 -1 -1 -1 -1 -1 -1 -1 -2 -2
-2 -1 -1 -1 -1 -1 -1 -1 -2 -2 -2 -2 -1 -1 -3 -3 -3 -4 -4 -4 -4 -4 -4 -4 -3 -3 -3 -2 -2 -2 -2 -2 -2 -2 -2 -2 -2 -2 -2 -2 -2 -2 -2 -2
-3 -2 -2 -2 -2 -2 -2 -2 -2 -2 -3 -3 -2 -3 -4 -5 -5 -5 -5 -5 -5 -5 -5 -4 -4 -4 -3 -3 -3 -3 -3 -2 -2 -2 -2 -2 -2 -2 -2 -2 -2 -3 -3 -3
-3 -3 -3 -3 -2 -2 -2 -3 -3 -3 -4 -5 -4 -5 -5 -5 -6 -5 -5 -5 -5 -5 -5 -5 -4 -4 -4 -4 -4 -3 -3 -3 -3 -3 -3 -3 -3 -3 -3 -3 -3 -3 -3 -3
-4 -3 -3 -3 -3 -3 -3 -4 -5 -5 -4 -6 -6 -6 -6 -6 -6 -6 -6 -6 -6 -6 -5 -5 -5 -5 -5 -4 -4 -4 -4 -4 -4 -4 -4 -4 -4 -4 -4 -4 -4 -4 -4 -4
-5 -4 -4 -4 -3 -2 -3 -5 -5 -5 -4 -6 -7 -7 -7 -7 -6 -6 -6 -6 -6 -6 -6 -6 -6 -6 -5 -5 -5 -5 -5 -5 -5 -5 -4 -4 -4 -5 -5 -5 -5 -5 -5 -5
-5 -5 -5 -4 -4 -4 -6 -6 -5 -4 -4 -7 -7 -7 -8 -8 -7 -7 -7 -7 -7 -7 -7 -6 -6 -6 -6 -6 -6 -5 -5 -5 -5 -5 -5 -5 -5 -5 -5 -5 -6 -6 -6 -6
-6 -6 -6 -5 -5 -4 -7 -7 -6 -6 -7 -7 -7 -7 -8 -8 -8 -8 -8 -8 -8 -7 -7 -7 -7 -7 -7 -7 -7 -6 -6 -6 -6 -6 -6 -6 -6 -6 -6 -6 -6 -6 -7 -7
-7 -7 -7 -6 -6 -7 -7 -7 -7 -7 -7 -8 -8 -8 -8 -8 -8 -9 -9 -9 -8 -8 -8 -8 -8 -8 -8 -8 -7 -7 -7 -7 -7 -7 -7 -7 -7 -7 -7 -7 -7 -7 -7 -7
-9 -9 -8 -8 -8 -8 -8 -8 -7 -8 -8 -8 -8 -8 -8 -9 -9 -9 -9 -9 -9 -9 -9 -8 -8 -8 -8 -8 -8 -8 -8 -8 -8 -8 -7 -8 -8 -8 -8 -8 -8 -8 -8 -8
-9 -9 -9 -9 -9 -9 -8 -8 -8 -8 -8 -9 -9 -9 -9 -9 -9 -9 -10 -10 -9 -9 -9 -9 -9 -9 -9 -9 -9 -9 -9 -8 -8 -8 -8 -8 -8 -8 -8 -8 -9 -9 -9 -9
-10 -10 -9 -8 -9 -9 -9 -8 -8 -9 -9 -9 -9 -9 -9 -9 -9 -10 -10 -10 -10 -10 -10 -10 -9 -9 -9 -9 -9 -9 -9 -9 -9 -9 -9 -9 -9 -9 -9 -9 -9 -10 -9 -9
Wind_Speed
1 2 6 8 9 7 6 7 8 8 4 5 10 13 10 6 5 7 7 7 8 8 7 6 6 8 8 9 9 10 9 9 8 6 5 4 4 3 2 3 5 6 6 7
2 5 7 5 6 6 7 8 9 6 4 6 8 12 8 7 8 8 8 8 8 6 4 5 6 7 9 10 10 9 9 9 8 6 5 4 3 3 3 3 4 6 6 6
6 4 3 4 4 6 8 9 8 6 4 4 5 9 8 5 5 5 6 6 6 7 7 7 7 8 9 10 11 10 10 9 8 7 5 4 3 2 2 2 2 3 6 6
4 4 3 4 6 6 9 7 7 6 4 5 3 7 8 5 5 6 7 6 6 6 6 6 7 8 9 10 9 9 9 9 8 8 8 8 6 4 4 4 3 3 5 6
5 3 4 6 7 6 6 3 5 5 5 5 4 6 8 3 6 9 8 7 6 5 5 6 7 8 7 8 9 9 9 8 8 8 8 8 5 4 3 3 4 4 3 5
5 3 3 5 3 4 2 1 1 1 2 6 8 8 8 4 7 6 6 6 5 4 4 4 5 5 5 6 7 8 8 8 8 8 7 7 7 6 6 5 5 4 3 3
4 3 2 1 0 0 2 2 1 2 3 7 4 6 8 4 3 4 4 3 3 2 3 3 4 5 5 6 6 7 8 8 8 8 7 7 7 7 8 7 6 5 4 3
2 5 3 2 3 3 4 5 5 4 5 4 3 8 6 2 1 1 0 1 0 1 2 3 4 5 5 6 6 7 8 7 7 8 7 6 7 6 5 6 5 6 5 5
2 5 3 2 2 4 3 4 4 2 2 4 6 6 5 2 3 3 2 2 1 1 1 2 3 4 5 6 7 7 7 7 7 7 6 6 6 6 5 5 5 4 3 3
2 5 4 3 1 0 3 4 3 3 4 5 5 4 4 3 4 3 3 2 3 2 1 1 2 2 3 5 5 6 6 6 6 7 6 5 6 6 5 5 5 5 4 4
0 2 4 2 2 4 2 2 2 3 4 4 4 5 1 3 3 3 3 3 3 2 2 1 1 1 2 3 4 5 5 5 5 5 5 5 5 5 5 5 5 4 4 4
0 1 4 6 4 1 3 3 4 3 4 4 4 5 2 1 2 1 2 3 3 2 1 1 0 1 1 2 3 4 5 5 5 5 4 5 5 5 5 4 4 4 4 4
1 1 3 4 2 1 0 1 2 2 2 3 4 6 3 4 4 4 3 4 3 2 1 1 1 1 1 1 2 3 3 4 4 4 5 5 5 5 5 4 4 4 4 4
1 2 5 6 5 2 4 5 3 3 4 5 7 7 6 6 6 5 4 3 3 3 1 2 2 2 1 0 1 2 2 3 3 4 4 5 5 5 5 4 4 4 3 4
2 3 4 6 4 3 5 7 5 6 6 7 8 8 8 6 6 5 3 2 3 3 3 2 2 2 2 2 1 0 1 2 3 4 5 4 4 4 4 4 4 3 3 3
1 2 2 3 2 2 5 7 7 7 6 8 10 10 4 4 4 4 4 2 2 2 3 4 3 2 2 2 2 1 0 1 3 4 4 4 4 4 4 4 4 3 3 3
1 2 1 3 2 3 6 6 5 3 4 5 8 6 5 5 5 5 4 3 2 3 3 4 4 2 2 2 1 1 0 1 2 3 3 4 4 4 4 4 4 4 3 3
3 3 1 1 2 4 5 1 1 3 3 2 3 4 4 4 4 5 3 3 4 4 4 4 4 4 3 3 2 2 2 2 2 2 3 3 4 4 3 4 3 3 3 3
3 4 2 2 2 6 4 2 2 2 4 2 4 5 5 4 4 3 5 5 4 4 4 3 3 3 3 3 3 2 2 2 2 1 1 2 3 3 3 3 3 3 3 2
2 2 2 2 2 5 4 3 4 0 4 3 4 4 4 4 2 4 5 6 6 5 4 3 3 4 4 4 3 3 2 2 2 1 1 1 2 3 3 3 3 2 3 2
1 1 2 3 4 6 3 4 1 1 5 5 3 3 2 2 3 4 4 5 5 5 4 4 4 4 4 4 4 3 3 2 2 2 2 1 1 2 3 3 2 3 2 2
3 2 3 2 3 6 2 2 2 3 4 3 3 3 3 3 3 3 3 4 4 5 5 5 4 4 4 4 4 4 3 3 3 2 2 2 1 1 2 3 2 2 3 3
4 4 3 5 5 2 1 2 2 2 3 3 3 4 2 2 3 3 3 3 4 4 4 4 4 4 5 5 4 3 3 3 2 3 2 2 2 1 1 2 2 2 3 2
2 1 2 3 5 4 3 2 3 2 2 3 3 3 2 2 2 2 2 3 3 4 4 4 4 4 5 5 4 3 3 3 2 2 2 1 1 1 1 1 2 2 2 2
3 2 2 4 4 4 3 2 3 3 3 3 3 3 1 1 2 1 2 2 3 4 4 3 3 3 4 4 4 4 3 2 2 2 1 1 1 1 1 1 1 1 2 3
2 3 3 5 4 3 4 3 2 2 3 3 3 3 3 1 1 1 1 2 2 3 3 3 3 3 3 4 4 4 3 2 1 1 1 1 0 0 1 1 1 2 1 1
Wind_Direction
73 130 212 217 212 223 223 229 248 253 241 223 241 253 257 242 229 237 238 224 217 221 214 191 186 182 177 175 174 173 169 167 160 157 157 155 164 163 150 145 149 152 152 150
54 236 233 220 214 222 232 247 255 271 252 228 257 263 255 230 226 230 231 222 215 217 203 191 186 182 184 183 180 176 174 171 173 173 168 159 151 164 160 147 148 158 156 156
209 240 211 206 221 222 235 231 238 253 293 259 277 277 250 243 234 240 234 217 213 209 206 199 194 192 186 186 184 182 178 174 173 161 146 129 110 105 143 168 175 172 166 162
241 249 217 226 225 210 245 235 230 242 253 259 209 270 259 237 243 241 241 226 219 215 205 196 195 194 193 190 183 178 175 174 172 163 165 165 169 176 189 185 184 179 171 164
250 226 212 227 232 210 229 242 231 233 227 263 224 235 272 221 241 245 242 231 225 213 201 197 195 195 190 183 179 177 173 174 173 173 175 175 176 170 159 156 166 171 168 163
259 246 215 222 240 212 216 7 324 160 167 252 223 208 266 219 228 243 242 235 232 223 210 199 185 174 174 174 171 171 172 176 175 176 177 178 175 167 162 171 175 179 177 173
306 275 240 198 335 296 131 109 330 294 232 245 192 211 248 231 231 227 234 243 243 228 201 183 176 175 173 169 170 172 175 179 178 178 182 184 180 175 179 181 183 184 185 193
285 280 242 214 196 203 210 175 190 229 239 271 226 232 247 258 311 351 240 189 223 262 206 191 188 184 178 174 172 176 181 182 181 183 187 185 180 181 186 187 187 192 198 198
235 270 312 280 255 170 180 206 200 192 266 262 251 269 295 1 6 10 4 16 349 298 255 212 192 181 177 177 179 181 181 182 184 185 184 185 184 182 185 188 187 191 197 196
199 269 292 307 4 174 186 170 140 190 226 257 272 254 268 288 294 314 327 322 308 309 312 276 204 187 181 179 178 179 180 183 184 183 184 187 185 182 182 184 188 187 190 191
297 239 303 330 210 211 146 169 174 198 210 214 264 268 258 253 260 267 284 300 293 299 296 279 248 181 168 165 173 178 180 178 178 179 180 180 182 182 178 180 186 188 186 183
220 168 269 264 261 233 187 189 166 194 241 222 239 269 355 349 338 325 319 326 322 321 301 303 141 132 139 151 171 179 180 180 182 179 175 176 175 175 177 180 181 183 182 184
145 138 314 327 338 23 214 239 215 202 193 214 223 262 0 12 10 5 359 350 340 352 40 45 59 96 150 165 178 185 181 182 178 171 170 171 175 177 180 180 176 175 175 173
174 194 210 229 253 251 272 282 255 191 217 242 240 267 312 333 335 336 343 346 351 3 26 65 52 31 26 75 172 180 179 177 167 164 168 176 180 182 180 171 166 167 171 170
136 226 239 258 266 247 266 275 253 226 228 235 260 270 286 305 306 307 319 346 12 13 11 18 27 10 16 21 20 37 178 169 166 166 171 177 171 164 161 161 161 164 172 175
159 231 259 273 258 267 278 278 255 249 251 253 269 276 311 328 349 341 333 337 349 356 358 355 358 2 4 1 1 9 117 153 154 163 169 159 155 154 159 163 161 162 167 169
209 175 194 272 313 333 280 255 224 226 232 229 254 279 332 330 335 323 314 318 336 357 354 349 344 341 341 333 344 352 21 130 138 152 152 156 159 160 163 164 162 168 172 169
181 166 189 278 29 246 251 355 260 249 272 290 300 323 321 311 323 334 358 13 5 353 347 344 345 344 352 359 5 23 57 80 110 138 151 160 162 159 155 153 158 163 161 169
194 171 170 171 237 270 295 341 359 280 289 342 309 321 341 342 346 352 14 9 353 342 340 339 344 349 359 7 15 50 54 57 66 80 121 148 152 150 148 149 153 152 150 153
51 129 164 172 216 253 278 322 321 300 285 347 330 314 336 358 326 301 343 350 350 353 359 3 9 18 14 6 23 55 51 43 29 15 31 93 134 148 157 161 157 150 150 152
71 69 204 213 233 261 288 310 345 177 283 318 309 302 302 276 275 299 332 352 358 2 6 14 27 25 9 9 34 47 37 12 352 12 31 60 101 141 152 149 148 146 141 133
185 190 207 192 218 257 339 63 166 259 310 306 304 306 297 304 327 343 357 1 3 7 11 17 25 17 8 17 39 37 16 356 10 30 37 46 76 110 123 128 132 141 141 140
203 203 205 202 221 276 208 215 272 298 300 307 312 311 303 313 324 338 351 360 7 6 6 13 24 15 11 15 33 30 355 360 28 37 35 36 54 80 111 135 141 142 145 153
265 252 199 249 265 279 288 313 337 341 315 317 320 321 324 315 322 338 349 356 0 2 4 11 21 16 6 6 12 6 352 7 38 42 28 36 71 84 98 120 141 157 170 175
240 196 214 251 280 315 303 303 317 332 344 350 353 355 346 333 331 337 342 341 346 350 356 4 11 4 352 359 2 358 359 15 34 33 23 30 50 96 96 85 154 189 207 204
217 199 207 243 242 239 272 292 311 326 329 331 345 349 354 350 320 341 332 334 347 350 352 356 359 357 352 358 357 354 354 12 35 22 13 21 48 70 81 80 36 17 355 284
Height
1461 1466 1467 1466 1466 1466 1468 1469 1469 1467 1465 1467 1465 1463 1461 1461 1461 1461 1461 1461 1462 1464 1467 1470 1472 1475 1478 1481 1484 1487 1490 1493 1495 1498 1500 1502 1505 1508 1510 1512 1514 1516 1517 1519
1465 1465 1462 1462 1464 1465 1467 1468 1468 1465 1464 1465 1464 1460 1458 1457 1457 1457 1457 1457 1459 1461 1462 1465 1468 1470 1473 1476 1479 1483 1485 1488 1491 1494 1497 1499 1502 1505 1507 1509 1511 1513 1514 1516
1462 1460 1459 1461 1463 1465 1465 1466 1466 1466 1465 1463 1464 1458 1455 1452 1453 1453 1453 1453 1454 1456 1458 1460 1463 1465 1468 1471 1474 1477 1481 1484 1487 1490 1493 1496 1499 1501 1503 1505 1507 1509 1511 1512
1461 1458 1459 1460 1461 1461 1462 1460 1462 1463 1466 1466 1464 1462 1450 1450 1451 1450 1449 1449 1450 1452 1454 1456 1458 1460 1463 1466 1470 1473 1476 1480 1483 1486 1489 1491 1493 1495 1498 1501 1503 1506 1508 1509
1458 1457 1457 1458 1457 1458 1458 1458 1460 1462 1463 1466 1464 1465 1450 1449 1448 1445 1444 1445 1446 1448 1450 1451 1453 1456 1459 1462 1466 1469 1472 1476 1479 1482 1485 1487 1490 1492 1495 1497 1500 1502 1504 1505
1456 1455 1455 1455 1455 1456 1457 1459 1460 1463 1465 1464 1459 1462 1449 1448 1442 1440 1440 1442 1443 1445 1447 1449 1451 1453 1456 1459 1462 1465 1468 1471 1475 1478 1480 1483 1486 1488 1490 1493 1495 1497 1499 1501
1456 1454 1454 1454 1455 1456 1457 1461 1464 1461 1463 1457 1454 1455 1445 1441 1440 1439 1439 1439 1440 1442 1443 1445 1447 1450 1452 1454 1458 1461 1464 1467 1470 1473 1476 1479 1481 1484 1486 1488 1491 1493 1495 1496
1461 1457 1453 1453 1453 1456 1457 1458 1462 1462 1460 1456 1455 1452 1441 1440 1438 1437 1438 1438 1439 1440 1441 1442 1445 1447 1449 1452 1455 1458 1461 1463 1466 1469 1472 1475 1477 1480 1482 1485 1487 1489 1491 1493
1463 1457 1453 1452 1452 1453 1456 1458 1457 1462 1462 1462 1455 1449 1441 1439 1438 1438 1437 1437 1438 1439 1440 1441 1442 1444 1447 1449 1452 1454 1457 1460 1462 1465 1468 1470 1473 1476 1478 1480 1483 1485 1487 1489
1462 1461 1455 1453 1452 1452 1453 1455 1460 1460 1460 1457 1451 1449 1444 1440 1440 1439 1438 1438 1438 1438 1439 1439 1441 1442 1444 1447 1449 1452 1454 1456 1459 1462 1464 1466 1469 1472 1474 1476 1478 1480 1482 1484
1462 1464 1460 1456 1455 1454 1456 1457 1456 1459 1457 1456 1454 1446 1441 1440 1439 1439 1438 1438 1437 1438 1438 1439 1439 1440 1442 1444 1447 1449 1451 1453 1456 1458 1461 1463 1465 1468 1470 1473 1475 1476 1478 1480
1462 1465 1464 1458 1454 1453 1454 1455 1458 1458 1459 1458 1455 1448 1442 1440 1439 1438 1438 1438 1437 1437 1437 1438 1439 1439 1440 1442 1444 1446 1448 1450 1452 1455 1457 1459 1462 1464 1466 1468 1471 1473 1474 1476
1462 1465 1464 1456 1457 1457 1457 1457 1457 1458 1460 1460 1457 1446 1442 1440 1439 1439 1438 1437 1437 1436 1436 1437 1437 1438 1439 1440 1442 1443 1445 1447 1449 1451 1454 1456 1458 1460 1462 1465 1467 1469 1470 1472
1460 1464 1464 1459 1454 1457 1459 1458 1457 1458 1459 1457 1451 1443 1443 1442 1440 1440 1438 1437 1437 1436 1436 1436 1436 1437 1437 1438 1439 1441 1442 1444 1446 1448 1450 1452 1454 1457 1459 1461 1463 1465 1467 1468
1459 1462 1461 1458 1456 1457 1457 1456 1456 1456 1455 1454 1447 1445 1442 1443 1442 1440 1439 1437 1436 1436 1436 1436 1436 1436 1436 1437 1438 1439 1440 1441 1443 1445 1447 1449 1451 1453 1456 1457 1460 1462 1463 1465
1460 1461 1460 1459 1456 1456 1455 1453 1453 1453 1454 1452 1447 1445 1444 1444 1442 1441 1439 1438 1437 1436 1436 1436 1436 1436 1436 1436 1436 1437 1438 1439 1441 1442 1444 1446 1448 1450 1452 1454 1456 1458 1460 1461
1461 1462 1462 1458 1457 1455 1455 1452 1451 1452 1451 1451 1448 1447 1446 1444 1442 1441 1439 1438 1437 1437 1436 1436 1435 1435 1435 1435 1435 1436 1436 1437 1439 1440 1441 1443 1445 1446 1448 1450 1452 1454 1456 1457
1461 1462 1463 1463 1461 1460 1452 1451 1449 1449 1449 1450 1448 1447 1446 1444 1442 1441 1439 1438 1437 1437 1436 1435 1435 1435 1434 1434 1434 1435 1435 1436 1436 1437 1439 1440 1442 1443 1445 1447 1449 1450 1452 1453
1458 1460 1463 1465 1464 1456 1452 1452 1453 1452 1450 1450 1449 1447 1445 1443 1441 1439 1439 1438 1438 1437 1436 1435 1435 1434 1433 1433 1433 1433 1434 1434 1435 1436 1436 1437 1439 1440 1442 1443 1445 1446 1448 1449
1459 1459 1462 1463 1461 1455 1453 1454 1452 1453 1450 1449 1448 1447 1446 1444 1443 1441 1439 1438 1437 1436 1435 1434 1434 1433 1433 1432 1432 1432 1433 1433 1433 1434 1434 1435 1436 1437 1439 1440 1442 1443 1444 1446
1465 1466 1465 1463 1461 1457 1456 1453 1451 1454 1450 1449 1447 1446 1446 1445 1444 1442 1439 1438 1437 1436 1435 1434 1433 1432 1432 1432 1431 1431 1431 1432 1432 1432 1433 1433 1434 1435 1436 1438 1439 1440 1441 1443
1466 1467 1468 1465 1462 1459 1455 1453 1455 1453 1450 1448 1446 1445 1444 1443 1441 1440 1439 1437 1436 1435 1434 1433 1432 1432 1432 1431 1431 1430 1430 1430 1430 1431 1431 1432 1432 1433 1434 1435 1436 1437 1438 1439
1465 1463 1462 1461 1459 1455 1453 1452 1451 1450 1449 1447 1445 1444 1443 1441 1440 1439 1438 1437 1436 1435 1434 1433 1432 1432 1432 1431 1431 1430 1430 1430 1429 1429 1430 1430 1431 1431 1432 1433 1433 1434 1435 1436
1462 1461 1461 1460 1455 1453 1452 1450 1449 1448 1447 1446 1445 1443 1442 1440 1439 1438 1437 1436 1435 1434 1434 1433 1432 1431 1431 1431 1430 1430 1429 1429 1428 1428 1428 1428 1429 1429 1430 1431 1432 1432 1433 1434
1459 1459 1459 1457 1454 1451 1449 1448 1448 1446 1445 1444 1443 1442 1441 1439 1438 1438 1437 1436 1435 1434 1434 1433 1432 1431 1431 1430 1429 1429 1428 1428 1427 1427 1427 1427 1427 1428 1428 1429 1430 1430 1431 1432
1457 1457 1457 1453 1450 1451 1448 1446 1446 1445 1444 1443 1441 1440 1439 1439 1437 1437 1436 1435 1435 1434 1433 1432 1431 1431 1430 1429 1429 1428 1428 1427 1427 1426 1426 1426 1426 1426 1426 1427 1428 1428 1430 1430